OneWeb SL0133

operational
NORAD ID: 47263 Int'l Des: 2020-100 Owner: ONEWEB Country: UK Constellation: oneweb
LEOCIRCULARPOLARONEWEB_TYPE

OneWeb SL0133について

説明を読み込み中...

リアルタイム位置

3D地球を読み込み中...

次回通過

高度履歴

Altitude vs Time

uPlot chart will show altitude changes over time

軌道要素

1 47263U 20100F 26035.95057984 .00000015 00000-0 50530-5 0 9992
2 47263 87.8950 16.8967 0001768 86.6267 273.5064 13.12442288247189
Epoch: Feb 4, 2026 • Age: 10 hours

現在のステータス

高度 1243.7 km
速度 7.23 km/s
衛星直下点 -84.14°S, 57.46°W
打ち上げ日 Dec 18, 2020
運用期間 5.1 years
タイプ internet

技術仕様

分類 Payload
質量 148.00 kg
乾燥質量 140.00 kg
総質量 148.00 kg
長さ 1.30 m
直径 1.00 m
スパン 5.00 m
形状 Trapezoid+2 pan
製造者 ONEWUS
バスタイプ ARROW
フェーズステータス In Orbit
所有者/国 ONEWEB/UK

大規模コンステレーション

Loading constellations...